Change the Weather History Date:

Friday, March 22, 2013

  Actual Average Record
Temperature  
Mean Temperature 83 °F -  
Max Temperature 96 °F 98 °F 105 °F (1998)
Min Temperature 70 °F 72 °F 57 °F (2012)
Cooling Degree Days 18    
Growing Degree Days 33 (Base 50)    
Moisture  
Dew Point 65 °F    
Average Humidity 55    
Maximum Humidity 65    
Minimum Humidity 19    
Precipitation  
Precipitation 0.00 in 0.00 in - ()
Sea Level Pressure  
Sea Level Pressure 29.74 in    
Wind  
Wind Speed 2 mph ()    
Max Wind Speed 9 mph    
Max Gust Speed -    
Visibility 2.5 miles    
Events      
Averages and records for this station are not official NWS values.
T = Trace of Precipitation, MM = Missing Value Source: Averaged Metar Reports

Daily Weather History Graph

Daily Weather History Graph

Search for Another Location

Airport or City:

Trip Planner

Search our weather history database for the weather conditions in past years. The results will help you decide how hot, cold, wet, or windy it might be!

Date:

Astronomy

Mar. 22, 2013 Rise Set
Actual Time 6:41 AM IST 6:51 PM IST
Civil Twilight 6:19 AM IST 7:13 PM IST
Nautical Twilight 5:53 AM IST 7:39 PM IST
Astronomical Twilight 5:26 AM IST 8:06 PM IST
Moon 2:21 PM IST (3/22) 2:54 AM IST (3/22)
Length of Visible Light 12h 54m
Length of Day
12h 09m
Waxing Gibbous, 73% of the Moon is Illuminated
Mar 22
Waxing Gibbous
Mar 27
Full
Apr 3
Last Quarter
Apr 10
New
Apr 18
First Quarter

Hourly Weather History & Observations

Time (IST) Temp. Heat Index Dew Point Humidity Pressure Visibility Wind Dir Wind Speed Gust Speed Precip Events Conditions
12:10 AM 77.0 °F - 57.2 °F 50% 29.80 in 2.5 mi Calm Calm - N/A   Smoke
12:40 AM 77.0 °F - 57.2 °F 50% 29.80 in 2.5 mi Calm Calm - N/A   Smoke
1:10 AM 77.0 °F - 57.2 °F 50% 29.77 in 2.5 mi Calm Calm - N/A   Smoke
1:40 AM 75.2 °F - 57.2 °F 53% 29.77 in 2.5 mi Calm Calm - N/A   Smoke
2:10 AM 75.2 °F - 57.2 °F 53% 29.77 in 2.5 mi Calm Calm - N/A   Smoke
2:30 AM 76 °F - 66 °F 64% 29.77 in 2 mi Calm Calm - -   Smoke
2:40 AM 75.2 °F - 59.0 °F 57% 29.77 in 2.5 mi Calm Calm - N/A   Smoke
3:10 AM 75.2 °F - 60.8 °F 61% 29.74 in 2.5 mi Calm Calm - N/A   Smoke
3:40 AM 73.4 °F - 60.8 °F 65% 29.74 in 2.5 mi Calm Calm - N/A   Smoke
4:10 AM 73.4 °F - 60.8 °F 65% 29.71 in 2.5 mi Calm Calm - N/A   Smoke
4:40 AM 73.4 °F - 59.0 °F 61% 29.71 in 2.5 mi Calm Calm - N/A   Smoke
5:10 AM 73.4 °F - 57.2 °F 57% 29.71 in 2.5 mi NNW 3.5 mph - N/A   Smoke
5:30 AM 75 °F - 62 °F 54% 29.74 in 1 mi Calm Calm - -   Haze
5:40 AM 75.2 °F - 60.8 °F 61% 29.71 in 2.2 mi NNW 3.5 mph - N/A   Haze
6:10 AM 75.2 °F - 60.8 °F 61% 29.74 in 2.2 mi Calm Calm - N/A   Haze
6:40 AM 75.2 °F - 60.8 °F 61% 29.74 in 2.2 mi NNE 5.8 mph - N/A   Haze
7:40 AM 77.0 °F - 62.6 °F 61% 29.77 in 1.9 mi NE 5.8 mph - N/A   Haze
8:10 AM 77.0 °F - 62.6 °F 61% 29.77 in 1.9 mi NNE 5.8 mph - N/A   Haze
8:30 AM 78 °F - 68 °F 65% 29.79 in 2 mi NW 4.6 mph - -   Haze
8:40 AM 77.0 °F - 64.4 °F 65% 29.80 in 1.9 mi North 5.8 mph - N/A   Haze
9:10 AM 78.8 °F - 64.4 °F 61% 29.80 in 1.9 mi NNW 5.8 mph - N/A   Haze
9:40 AM 80.6 °F 82.3 °F 64.4 °F 58% 29.80 in 1.9 mi NW 6.9 mph - N/A   Haze
10:10 AM 80.6 °F 82.7 °F 66.2 °F 61% 29.80 in 2.2 mi NNW 5.8 mph - N/A   Haze
10:40 AM 82.4 °F 84.6 °F 66.2 °F 58% 29.80 in 2.5 mi North 5.8 mph - N/A   Smoke
11:10 AM 82.4 °F 84.6 °F 66.2 °F 58% 29.80 in 2.5 mi NNW 5.8 mph - N/A   Smoke
11:30 AM 88 °F - 71 °F 49% 29.80 in 2 mi NW 4.6 mph - -   Smoke
11:40 AM 84.2 °F 87.3 °F 68.0 °F 58% 29.80 in 2.5 mi NW 5.8 mph - N/A   Smoke
12:10 PM 86.0 °F 89.4 °F 68.0 °F 55% 29.77 in 2.5 mi NNW 5.8 mph - N/A   Smoke
1:10 PM 87.8 °F 91.4 °F 68.0 °F 52% 29.77 in 3.1 mi NW 6.9 mph - N/A   Smoke
1:40 PM 87.8 °F 91.4 °F 68.0 °F 52% 29.74 in 3.1 mi NW 9.2 mph - N/A   Smoke
2:10 PM 91.4 °F 98.4 °F 71.6 °F 52% 29.71 in 3.1 mi NW 9.2 mph - N/A   Smoke
2:30 PM 95 °F - 57 °F 19% 29.73 in 2 mi West 5.8 mph - -   Smoke
2:40 PM 95.0 °F 104.5 °F 73.4 °F 49% 29.71 in 3.1 mi WNW 9.2 mph - N/A   Smoke
3:10 PM 98.6 °F 114.4 °F 77.0 °F 50% 29.71 in 3.1 mi WNW 9.2 mph - N/A   Smoke
3:40 PM 98.6 °F 114.4 °F 77.0 °F 50% 29.68 in 3.7 mi WNW 6.9 mph - N/A   Scattered Clouds
4:10 PM 96.8 °F 112.2 °F 77.0 °F 53% 29.68 in 3.7 mi WNW 6.9 mph - N/A   Scattered Clouds
4:40 PM 95.0 °F 107.4 °F 75.2 °F 53% 29.68 in 3.7 mi WNW 6.9 mph - N/A   Scattered Clouds
5:10 PM 93.2 °F 105.0 °F 75.2 °F 56% 29.68 in 3.7 mi WNW 5.8 mph - N/A   Scattered Clouds
5:30 PM 94 °F - 59 °F 21% 29.69 in 2 mi NW 4.6 mph - -   Smoke
6:40 PM 87.8 °F 93.8 °F 71.6 °F 58% 29.68 in 2.5 mi WNW 3.5 mph - N/A   Haze
7:10 PM 84.2 °F 88.4 °F 69.8 °F 62% 29.71 in 2.5 mi WNW 3.5 mph - N/A   Haze
7:40 PM 84.2 °F 88.4 °F 69.8 °F 62% 29.71 in 2.5 mi WNW 3.5 mph - N/A   Haze
8:10 PM 84.2 °F 87.3 °F 68.0 °F 58% 29.71 in 2.5 mi NW 3.5 mph - N/A   Haze
8:30 PM 80 °F - 59 °F 39% 29.72 in 2 mi Calm Calm - -   Clear
8:40 PM 84.2 °F 87.3 °F 68.0 °F 58% 29.71 in 2.5 mi Calm Calm - N/A   Haze
9:10 PM 82.4 °F 84.6 °F 66.2 °F 58% 29.71 in 2.5 mi Calm Calm - N/A   Smoke
9:40 PM 82.4 °F 84.6 °F 66.2 °F 58% 29.71 in 2.5 mi Calm Calm - N/A   Smoke
10:10 PM 80.6 °F 82.3 °F 64.4 °F 58% 29.71 in 2.5 mi Calm Calm - N/A   Smoke
10:40 PM 80.6 °F 82.3 °F 64.4 °F 58% 29.71 in 2.2 mi Calm Calm - N/A   Smoke
11:10 PM 80.6 °F 81.8 °F 62.6 °F 54% 29.74 in 2.2 mi Calm Calm - N/A   Smoke
11:30 PM 74 °F - 59 °F 49% 29.75 in 2 mi SSW 2.3 mph - -   Clear
11:40 PM 78.8 °F - 60.8 °F 54% 29.74 in 2.2 mi Calm Calm - N/A   Smoke